| time (UTC) | temp F | wind direction | speed MPH | gust MPH | rain 1hr in | rain 24hr in | rain mn in | humidity % | barometer mb |
| 20260507011600 | 47 | 30 | 0.0 | 2.0 | 0.00 | 0.00 | 0.00 | 48 | 1017.1 |
| 20260507010057 | 49 | 30 | 0.0 | 3.0 | 0.00 | 0.00 | 0.00 | 46 | 1017.1 |
| 20260507004556 | 50 | 295 | 0.0 | 3.0 | 0.00 | 0.00 | 0.00 | 44 | 1016.9 |
| 20260507003056 | 51 | 353 | 0.0 | 9.0 | 0.00 | 0.00 | 0.00 | 43 | 1016.9 |
| 20260507001604 | 51 | 30 | 4.0 | 8.0 | 0.00 | 0.00 | 0.00 | 41 | 1016.9 |
| 20260507000056 | 52 | 306 | 3.0 | 12.0 | 0.00 | 0.00 | 0.00 | 42 | 1017.0 |
| 20260506234616 | 52 | 292 | 2.0 | 11.0 | 0.00 | 0.00 | 0.00 | 42 | 1017.1 |
| 20260506233053 | 52 | 14 | 3.0 | 10.0 | 0.00 | 0.00 | 0.00 | 41 | 1017.0 |
| 20260506231555 | 52 | 41 | 5.0 | 12.0 | 0.00 | 0.00 | 0.00 | 41 | 1017.1 |
| 20260506230054 | 52 | 338 | 4.0 | 15.0 | 0.00 | 0.00 | 0.00 | 42 | 1017.2 |
| 20260506224551 | 51 | 288 | 3.0 | 13.0 | 0.00 | 0.00 | 0.00 | 42 | 1017.2 |
| 20260506223056 | 52 | 18 | 4.0 | 14.0 | 0.00 | 0.00 | 0.00 | 43 | 1017.2 |
| 20260506221548 | 52 | 307 | 4.0 | 11.0 | 0.00 | 0.00 | 0.00 | 43 | 1017.3 |
| 20260506220048 | 52 | 75 | 7.0 | 17.0 | 0.00 | 0.00 | 0.00 | 40 | 1017.4 |
| 20260506214546 | 51 | 268 | 4.0 | 13.0 | 0.00 | 0.00 | 0.00 | 44 | 1017.1 |
| 20260506213045 | 51 | 308 | 4.0 | 15.0 | 0.00 | 0.00 | 0.00 | 42 | 1017.4 |
| 20260506211544 | 51 | 304 | 5.0 | 18.0 | 0.00 | 0.00 | 0.00 | 44 | 1017.4 |
| 20260506210043 | 51 | 311 | 3.0 | 13.0 | 0.00 | 0.00 | 0.00 | 46 | 1017.4 |
| 20260506204552 | 51 | 137 | 6.0 | 17.0 | 0.00 | 0.00 | 0.00 | 45 | 1017.6 |
| 20260506203040 | 50 | 295 | 4.0 | 11.0 | 0.00 | 0.00 | 0.00 | 46 | 1017.6 |
| 20260506201541 | 51 | 300 | 5.0 | 9.0 | 0.00 | 0.00 | 0.00 | 44 | 1017.7 |
| 20260506200042 | 50 | 41 | 10.0 | 15.0 | 0.00 | 0.00 | 0.00 | 44 | 1017.9 |
| 20260506194542 | 50 | 223 | 4.0 | 15.0 | 0.00 | 0.00 | 0.00 | 47 | 1017.9 |
| 20260506193036 | 50 | 325 | 4.0 | 13.0 | 0.00 | 0.00 | 0.00 | 45 | 1017.9 |
| 20260506191534 | 49 | 15 | 5.0 | 11.0 | 0.00 | 0.00 | 0.00 | 46 | 1018.1 |
| 20260506184541 | 48 | 236 | 5.0 | 10.0 | 0.00 | 0.00 | 0.00 | 47 | 1018.0 |
| 20260506183052 | 48 | 256 | 6.0 | 10.0 | 0.00 | 0.00 | 0.00 | 47 | 1018.3 |
| 20260506181544 | 49 | 278 | 4.0 | 14.0 | 0.00 | 0.00 | 0.00 | 47 | 1018.2 |
| 20260506180038 | 49 | 48 | 4.0 | 12.0 | 0.00 | 0.00 | 0.00 | 47 | 1018.3 |
| 20260506174536 | 49 | 319 | 5.0 | 12.0 | 0.00 | 0.00 | 0.00 | 46 | 1018.2 |
| 20260506173036 | 49 | 271 | 7.0 | 13.0 | 0.00 | 0.00 | 0.00 | 45 | 1018.2 |
| 20260506171542 | 49 | 297 | 4.0 | 13.0 | 0.00 | 0.00 | 0.00 | 46 | 1018.3 |
| 20260506170038 | 49 | 293 | 6.0 | 16.0 | 0.00 | 0.00 | 0.00 | 45 | 1018.3 |
| 20260506164543 | 48 | 281 | 8.0 | 14.0 | 0.00 | 0.00 | 0.00 | 46 | 1018.3 |
| 20260506163031 | 48 | 296 | 5.0 | 10.0 | 0.00 | 0.00 | 0.00 | 47 | 1018.4 |
| 20260506161538 | 48 | 262 | 3.0 | 14.0 | 0.00 | 0.00 | 0.00 | 48 | 1018.3 |
| 20260506160041 | 47 | 296 | 6.0 | 18.0 | 0.00 | 0.00 | 0.00 | 48 | 1018.2 |
| 20260506154531 | 47 | 49 | 7.0 | 12.0 | 0.00 | 0.00 | 0.00 | 47 | 1018.2 |
| 20260506153026 | 48 | 44 | 8.0 | 14.0 | 0.00 | 0.00 | 0.00 | 48 | 1018.3 |
| 20260506151532 | 47 | 11 | 5.0 | 11.0 | 0.00 | 0.00 | 0.00 | 49 | 1017.9 |
| 20260506150028 | 45 | 314 | 8.0 | 15.0 | 0.00 | 0.00 | 0.00 | 50 | 1018.1 |
| 20260506144519 | 45 | 26 | 6.0 | 13.0 | 0.00 | 0.00 | 0.00 | 50 | 1018.3 |
| 20260506143036 | 45 | 323 | 4.0 | 9.0 | 0.00 | 0.00 | 0.00 | 55 | 1017.9 |
| 20260506141513 | 44 | 309 | 4.0 | 11.0 | 0.00 | 0.00 | 0.00 | 55 | 1017.9 |
| 20260506140013 | 43 | 41 | 6.0 | 10.0 | 0.00 | 0.00 | 0.00 | 56 | 1018.0 |
| 20260506134507 | 43 | 356 | 5.0 | 11.0 | 0.00 | 0.00 | 0.00 | 56 | 1017.9 |
| 20260506133006 | 42 | 205 | 2.0 | 8.0 | 0.00 | 0.00 | 0.00 | 62 | 1017.8 |
| 20260506131502 | 41 | 33 | 3.0 | 7.0 | 0.00 | 0.00 | 0.00 | 63 | 1017.7 |
| 20260506130131 | 40 | 42 | 3.0 | 7.0 | 0.00 | 0.00 | 0.00 | 67 | 1017.6 |
| 20260506124553 | 38 | 20 | 2.0 | 6.0 | 0.00 | 0.00 | 0.00 | 70 | 1017.4 |
| 20260506123049 | 38 | 25 | 2.0 | 6.0 | 0.00 | 0.00 | 0.00 | 70 | 1017.2 |
| 20260506121546 | 37 | 16 | 2.0 | 7.0 | 0.00 | 0.00 | 0.00 | 72 | 1017.1 |
| 20260506120044 | 37 | 17 | 2.0 | 6.0 | 0.00 | 0.00 | 0.00 | 72 | 1016.7 |
| 20260506114545 | 36 | 28 | 1.0 | 4.0 | 0.00 | 0.00 | 0.00 | 74 | 1016.5 |
| 20260506113040 | 35 | 39 | 0.0 | 3.0 | 0.00 | 0.00 | 0.00 | 76 | 1016.3 |
| 20260506111540 | 33 | 4 | 0.0 | 1.0 | 0.00 | 0.00 | 0.00 | 80 | 1016.1 |
| 20260506110048 | 32 | 4 | 0.0 | 0.0 | 0.00 | 0.00 | 0.00 | 81 | 1016.0 |
| 20260506104535 | 32 | 4 | 0.0 | 0.0 | 0.00 | 0.00 | 0.00 | 79 | 1015.9 |
| 20260506103034 | 33 | 4 | 0.0 | 0.0 | 0.00 | 0.00 | 0.00 | 77 | 1015.8 |
| 20260506101548 | 34 | 4 | 0.0 | 0.0 | 0.00 | 0.00 | 0.00 | 76 | 1015.8 |
| 20260506100032 | 34 | 4 | 0.0 | 1.0 | 0.00 | 0.00 | 0.00 | 76 | 1015.7 |
| 20260506094531 | 34 | 4 | 0.0 | 1.0 | 0.00 | 0.00 | 0.00 | 76 | 1015.6 |
| 20260506093029 | 34 | 4 | 0.0 | 1.0 | 0.00 | 0.00 | 0.00 | 76 | 1015.4 |
| 20260506091529 | 34 | 4 | 0.0 | 1.0 | 0.00 | 0.00 | 0.00 | 76 | 1015.2 |
| 20260506090027 | 34 | 4 | 0.0 | 1.0 | 0.00 | 0.00 | 0.00 | 77 | 1015.3 |
| 20260506084530 | 32 | 4 | 0.0 | 0.0 | 0.00 | 0.00 | 0.00 | 79 | 1015.1 |
| 20260506083026 | 32 | 4 | 0.0 | 0.0 | 0.00 | 0.00 | 0.00 | 80 | 1015.4 |
| 20260506081525 | 32 | 4 | 0.0 | 0.0 | 0.00 | 0.00 | 0.00 | 79 | 1015.1 |
| 20260506073021 | 31 | 4 | 0.0 | 0.0 | 0.00 | 0.00 | 0.00 | 82 | 1015.0 |
| 20260506071520 | 31 | 4 | 0.0 | 0.0 | 0.00 | 0.00 | 0.00 | 81 | 1014.9 |
| 20260506061511 | 34 | 4 | 0.0 | 0.0 | 0.00 | 0.00 | 0.00 | 80 | 1014.4 |
| 20260506044600 | 39 | 4 | 0.0 | 0.0 | 0.00 | 0.00 | 0.00 | 64 | 1013.7 |
| 20260506043053 | 40 | 4 | 0.0 | 1.0 | 0.00 | 0.00 | 0.00 | 63 | 1013.5 |
| 20260506041604 | 41 | 4 | 0.0 | 0.0 | 0.00 | 0.00 | 0.00 | 62 | 1013.4 |
| 20260506040052 | 41 | 4 | 0.0 | 0.0 | 0.00 | 0.00 | 0.00 | 59 | 1013.3 |
| 20260506034555 | 44 | 4 | 0.0 | 0.0 | 0.00 | 0.00 | 0.00 | 55 | 1013.3 |
| 20260506033052 | 45 | 4 | 0.0 | 2.0 | 0.00 | 0.00 | 0.00 | 54 | 1013.3 |
| 20260506031554 | 45 | 4 | 0.0 | 3.0 | 0.00 | 0.00 | 0.00 | 53 | 1013.2 |
| 20260506030048 | 46 | 349 | 0.0 | 3.0 | 0.00 | 0.00 | 0.00 | 53 | 1013.0 |
| 20260506024548 | 47 | 3 | 0.0 | 3.0 | 0.00 | 0.00 | 0.00 | 51 | 1012.9 |
| 20260506023045 | 48 | 20 | 2.0 | 5.0 | 0.00 | 0.00 | 0.00 | 48 | 1012.9 |
| 20260506021544 | 48 | 3 | 3.0 | 9.0 | 0.00 | 0.00 | 0.00 | 48 | 1012.8 |
| 20260506020041 | 49 | 358 | 2.0 | 8.0 | 0.00 | 0.00 | 0.00 | 47 | 1012.5 |
| 20260506014547 | 50 | 4 | 1.0 | 9.0 | 0.00 | 0.00 | 0.00 | 46 | 1012.0 |
| 20260506013039 | 50 | 27 | 5.0 | 9.0 | 0.00 | 0.00 | 0.00 | 44 | 1011.9 |